STARLINK-3274, 50186

Orbit data source: Space-Track

STARLINK-3274, 50186 is a payload satellite owned by SpaceX/Seattle (US) in LEO that was launched on Sat, 18 Dec 2021 UTC via an FALCON 9 launch vehicle from the Air Force Western Test Range (AFWTR). Payload-class satellites include a variety of spacecraft equipped with specific instruments for various scientific and technological missions. These include communications satellites like Starlink; space stations such as the ISS; scientific satellites like the Hubble; Earth observation satellites from companies like Planet Labs, Umbra, and HawkEye 360; GPS; miniature CubeSats for education and research; and military/defense satellites.

Loading next visibility...
Identifier
50186, 2021-125AG
Orbit
LEO
Country
Flag of USUS
Related business
Manufacturer
SpaceX/Seattle
Mission
Operational Commercial Communications
Bus & Motor
STARLINK, Unknown motor
Mass
290 kg wet, ~270 kg dry
Launch date (UTC)
2021-12-18 (5 years ago)
Launch vehicle
FALCON 9
Launch site
Air Force Western Test Range (AFWTR)
Object type
Payload
Rocket body
Debris
Shape & HBR
Box + 1 Pan, 10.1 m
Radar Cross Section
13.562 m², Large (>1 m²)

Expand to show TLE details & history
Last TLE update: 10 hours ago

TLE from 10 hours ago
0 STARLINK-3274
1 50186U 21125AG  26169.70319632 -.00001021  00000-0 -46068-4 0  9990
2 50186  53.1600 165.5489 0001324  38.8216 321.2870 15.08835271251701
Epoch: 2026-06-18T16:52Z
TLE epoch observation values (Epoch: 2026-06-18T16:52:36.162Z)
Latitude
-0.00003°
Longitude
5.45548°
Altitude
539.935 km
Speed
7.594 km/s
True Right ascension
11h 02m 11s
True Declination
0° 00' 00"
Sunlit
Object was in daylight at epoch
Visualization orbit readout
Latitude
Unknown
Longitude
Unknown
Altitude
Unknown
Speed
Unknown
Apparent Right ascension
Unknown
Apparent Declination
Unknown
Sunlit
N/A
Visualization observer readout
Local Sidereal Time
14:00:36
Azimuth
Unknown
Elevation
Unknown
Doppler factor
Unknown
Orbital elements
Apogee altitude
540.928 km
Perigee altitude
539.096 km
Semi-major axis
6,918.149 km
Eccentricity
0.00013
Inclination
53.16°
RAAN
165.5489°
Arg. of periapsis
38.8216°
True anomaly
321.27751°
Mean anomaly
321.287°
Eccentric anomaly
321.28226°
Mean motion
3.77188 °/min
Orbital period
95.44 mins
BSTAR
-0.000046068
Loading maneuver chart data...
Computing Atmospheric mass density...

Documentation

Showing up to 5 results
|